[[{"header":{"parameterUnit":"m.s-1","parameterCategory":1,"la1":30.2991,"la2":30.254,"lo1":-89.0895,"lo2":-89.0444,"dy":0.0017,"dx":0.0017,"nx":28,"ny":28,"refTime":"2024-08-22T09:00:00:Z","depth":0,"parameterNumber":2,"parameterNumberName":"U-component_of_WINDS"},"data":[0,0,0,0,0,0,0,0,0,0,0,0,0,0,0,0,0,0,0,0,0,0,0,0,0,0,0,0,0,0,0,0,0,0,0,0,0,0,0,0,0,0,0,0,0,0,0,0,0,0,0,0,0,0,0,0,0,0,-4.6272,-4.6272,0,-4.6311,-4.6311,-4.6312,-4.6213,-4.621,-4.6207,-4.6204,-4.6246,-4.625,-4.6254,0,0,0,0,0,0,0,0,0,0,0,0,0,-4.6115,-4.6118,-4.6272,-4.6272,-4.6273,-4.6311,-4.6311,-4.6312,-4.6214,-4.621,-4.6206,-4.6203,-4.6245,-4.625,-4.6254,0,0,0,0,0,0,0,0,0,0,0,0,0,-4.6172,-4.612,-4.6271,-4.6228,-4.6225,-4.6311,-4.6311,-4.6312,-4.6215,-4.621,-4.6205,-4.6201,-4.6243,-4.6249,-4.6255,-4.6385,0,0,-4.6273,-4.6276,0,0,0,0,0,0,0,0,-4.6169,-4.6178,-4.6234,-4.6231,-4.6228,-4.6252,-4.6271,-4.6337,-4.6216,-4.6219,-4.6204,-4.6199,-4.6252,-4.6257,-4.6275,-4.6387,-4.6389,-4.6274,-4.6278,-4.628,-4.6282,0,0,0,0,0,0,0,-4.6165,-4.6175,-4.6287,-4.6235,-4.6231,-4.6208,-4.6211,-4.6283,-4.6261,-4.6218,-4.6211,-4.6217,-4.6249,-4.6269,-4.6275,-4.6389,-4.6274,-4.6279,-4.6283,-4.6285,-4.6614,-4.6619,0,0,0,0,0,0,-4.6166,-4.6173,-4.6286,-4.6288,-4.6186,-4.6215,-4.6218,-4.6249,-4.626,-4.6257,-4.6221,-4.6212,-4.6261,-4.6268,-4.6276,-4.6431,-4.628,-4.6286,-4.6289,-4.6609,-4.6615,-4.662,0,0,0,0,0,0,-4.6163,-4.6177,-4.6284,-4.6229,-4.624,-4.6222,-4.6258,-4.6252,-4.6272,-4.6262,-4.6258,-4.6245,-4.6258,-4.6268,-4.6359,-4.6431,-4.6288,-4.6294,-4.6603,-4.6611,-4.6618,-4.6741,0,0,0,0,0,0,-4.6159,-4.6177,-4.6225,-4.623,-4.6244,-4.6366,-4.6263,-4.6256,-4.6282,-4.6271,-4.6283,-4.6281,-4.6255,-4.6351,-4.6365,-4.6437,-4.6299,-4.6596,-4.6606,-4.6615,-4.6731,-4.6752,-4.677,0,0,0,0,0,-4.6154,-4.6258,-4.6228,-4.6242,-4.6304,-4.637,-4.6378,-4.6345,-4.6288,-4.6338,-4.6332,-4.6281,-4.6421,-4.6361,-4.6376,-4.6451,-4.6591,-4.6603,-4.6614,-4.6722,-4.6748,-4.677,0,0,0,0,0,0,-4.6261,-4.6258,-4.6224,-4.6333,-4.6353,-4.6354,-4.6414,-4.6374,-4.6411,-4.6399,-4.6357,-4.6361,-4.6461,-4.6465,-4.6398,-4.6579,-4.6497,-4.6512,-4.6573,-4.6598,-4.6617,-4.6615,-4.6304,0,0,0,0,0,-4.6297,-4.6351,-4.6345,-4.6442,-4.6454,-4.6433,-4.6461,-4.6434,-4.6453,-4.6461,-4.6461,-4.6483,-4.6531,-4.6564,-4.6609,-4.6731,-4.6733,-4.679,-4.681,-4.6826,-4.684,-4.6907,-4.6933,-4.6658,-4.6658,-4.6658,0,0,-4.6373,-4.6378,-4.6414,-4.6464,-4.6476,-4.6534,-4.644,-4.6505,-4.6548,-4.6471,-4.6558,-4.6559,-4.658,-4.6688,-4.6736,-4.6695,-4.6916,-4.6841,-4.6854,-4.6859,-4.6922,-4.6948,-4.6971,-4.6666,-4.6665,-4.6663,0,0,-4.654,-4.6549,-4.6631,-4.6646,-4.6666,-4.6651,-4.6672,-4.6679,-4.6677,-4.6764,-4.6708,-4.6759,-4.6844,-4.6862,-4.6882,-4.706,-4.7015,-4.7075,-4.718,-4.7246,-4.7268,-4.7287,-4.7352,-4.7376,-4.7089,-4.7089,-4.709,0,-4.6632,-4.6716,-4.6679,-4.6748,-4.6773,-4.6706,-4.679,-4.6806,-4.684,-4.6859,-4.6812,-4.6919,-4.6928,-4.7041,-4.7084,-4.7102,-4.7126,-4.7074,-4.7268,-4.7286,-4.7304,-4.7366,-4.739,-4.7097,-4.7096,-4.7095,-4.7094,0,-4.6829,-4.6888,-4.6953,-4.6988,-4.7019,-4.7096,-4.7072,-4.7109,-4.708,-4.7071,-4.7162,-4.7171,-4.7217,-4.7242,-4.7214,-4.7352,-4.7326,-4.7274,-4.7191,-4.7338,-4.7396,-4.7419,-4.7107,-4.7105,-4.7102,-4.7101,0,0,-4.7064,-4.7079,-4.7103,-4.7119,-4.7137,-4.7183,-4.7258,-4.7303,-4.7337,-4.7363,-4.7425,-4.75,-4.7453,-4.7476,-4.745,-4.7508,-4.7652,-4.7449,-4.7449,-4.7488,-4.7807,-4.7847,-4.7875,-4.7622,-4.7626,-4.763,-4.7806,0,-4.7231,-4.7358,-4.7328,-4.7455,-4.7511,-4.7449,-4.7515,-4.7534,-4.7529,-4.7576,-4.757,-4.7625,-4.7557,-4.7571,-4.7626,-4.7623,-4.7715,-4.7609,-4.7682,-4.7685,-4.768,-4.7904,-4.7946,-4.8111,-4.7828,-4.7831,-4.7834,0,-4.7442,-4.7477,-4.7609,-4.7621,-4.7643,-4.7703,-4.7743,-4.7789,-4.781,-4.7802,-4.783,-4.7794,-4.787,-4.7785,-4.7891,-4.782,-4.7848,-4.7851,-4.7856,-4.7863,-4.7769,-4.7918,-4.8163,-4.8189,-4.7869,-4.7866,-4.7864,0,-4.7602,-4.7683,-4.7773,-4.7788,-4.7803,-4.7847,-4.7856,-4.7872,-4.7903,-4.7938,-4.7958,-4.8002,-4.8027,-4.8063,-4.804,-4.7981,-4.8151,-4.8064,-4.8148,-4.8149,-4.8187,-4.8185,-4.8441,-4.8203,-4.8203,-4.8202,-4.8202,0,-4.7792,-4.7876,-4.7846,-4.7901,-4.7994,-4.796,-4.8054,-4.8055,-4.8071,-4.8127,-4.8077,-4.8131,-4.8097,-4.8149,-4.8132,-4.8223,-4.8234,-4.8232,-4.8226,-4.8237,-4.8238,-4.8255,-4.8244,-4.8209,-4.8208,-4.8206,-4.8205,0,-4.7987,-4.797,-4.8065,-4.8072,-4.8076,-4.8145,-4.8151,-4.8204,-4.8196,-4.8268,-4.8283,-4.827,-4.8329,-4.831,-4.8373,-4.8362,-4.8478,-4.8457,-4.8471,-4.8467,-4.8553,-4.8546,-4.883,-4.8867,-4.8604,-4.8607,-4.8609,0,-4.811,-4.8174,-4.8189,-4.8223,-4.8235,-4.829,-4.8321,-4.829,-4.8325,-4.8356,-4.8406,-4.846,-4.8502,-4.8599,-4.8597,-4.8645,-4.8626,-4.8723,-4.8633,-4.8643,-4.863,-4.8627,-4.8634,-4.8741,-4.8744,-4.8747,-4.8748,0,-4.8331,-4.832,-4.8366,-4.841,-4.8449,-4.8482,-4.8511,-4.8542,-4.8513,-4.8555,-4.8614,-4.8647,-4.8713,-4.8768,-4.8813,-4.8823,-4.8783,-4.8777,-4.8799,-4.8811,-4.8817,-4.8817,-4.8522,-4.877,-4.8768,-4.8767,-4.8765,-4.8765,-4.8495,-4.8549,-4.8569,-4.8623,-4.8642,-4.867,-4.8721,-4.872,-4.8769,-4.8819,-4.8799,-4.8868,-4.8891,-4.8947,-4.8963,-4.9018,-4.8981,-4.9013,-4.9022,-4.903,-4.9042,-4.8808,-4.9026,-4.9026,-4.9025,-4.9024,-4.9024,0,-4.8715,-4.8725,-4.8775,-4.8817,-4.886,-4.8818,-4.8848,-4.8887,-4.8949,-4.8973,-4.9016,-4.9087,-4.9141,-4.9143,-4.9195,-4.9239,-4.9222,-4.9253,-4.925,-4.9254,-4.9071,-4.9048,-4.9267,-4.9267,-4.9266,-4.9266,-4.9266,-4.9266,-4.8834,-4.8925,-4.8917,-4.9017,-4.9026,-4.9094,-4.9116,-4.9143,-4.9162,-4.9243,-4.9288,-4.9289,-4.9306,-4.9358,-4.9407,-4.9406,-4.9429,-4.9468,-4.9461,-4.929,-4.9266,-4.9243,-4.9221,-4.9473,-4.9473,-4.9639,-4.964,-4.9642]},{"header":{"parameterUnit":"m.s-1","parameterCategory":1,"la1":30.2991,"la2":30.254,"lo1":-89.0895,"lo2":-89.0444,"dy":0.0017,"dx":0.0017,"nx":28,"ny":28,"refTime":"2024-08-22T09:00:00:Z","depth":0,"parameterNumber":3,"parameterNumberName":"V-component_of_WINDS"},"data":[0,0,0,0,0,0,0,0,0,0,0,0,0,0,0,0,0,0,0,0,0,0,0,0,0,0,0,0,0,0,0,0,0,0,0,0,0,0,0,0,0,0,0,0,0,0,0,0,0,0,0,0,0,0,0,0,0,0,0.0145,0.0145,0,0.0097,0.0096,0.0096,0.0103,0.0104,0.0105,0.0105,0.0052,0.005,0.0048,0,0,0,0,0,0,0,0,0,0,0,0,0,0.024,0.0239,0.0145,0.0145,0.0144,0.0097,0.0096,0.0096,0.0103,0.0104,0.0105,0.0106,0.0053,0.005,0.0047,0,0,0,0,0,0,0,0,0,0,0,0,0,0.0196,0.0238,0.0145,0.0142,0.0141,0.0097,0.0096,0.0095,0.0103,0.0104,0.0105,0.0106,0.0053,0.005,0.0047,0.0002,0,0,0.0037,0.0036,0,0,0,0,0,0,0,0,0.0199,0.0193,0.0143,0.0142,0.0141,0.0107,0.011,0.0064,0.0102,0.0117,0.0105,0.0107,0.0069,0.0065,0.0053,-0.0001,-0.0003,0.0037,0.0035,0.0033,0.0032,0,0,0,0,0,0,0,0.0202,0.0195,0.0126,0.0142,0.0141,0.0142,0.0137,0.0101,0.0087,0.0116,0.0116,0.0111,0.0069,0.0056,0.0051,-0.0004,0.0037,0.0034,0.0032,0.0031,-0.0098,-0.0099,0,0,0,0,0,0,0.0206,0.0197,0.0127,0.0124,0.0174,0.0139,0.0134,0.0117,0.0087,0.0084,0.011,0.0111,0.0061,0.0055,0.005,-0.0007,0.0033,0.003,0.0028,-0.0097,-0.0098,-0.01,0,0,0,0,0,0,0.0208,0.02,0.0129,0.0161,0.0152,0.0136,0.0117,0.0115,0.0102,0.0082,0.0079,0.0099,0.0062,0.0054,0.0014,-0.0009,0.0029,0.0026,-0.0095,-0.0097,-0.0099,-0.0119,0,0,0,0,0,0,0.0211,0.0201,0.0184,0.0161,0.015,0.0095,0.0116,0.0113,0.0097,0.0099,0.0072,0.0069,0.0062,0.0018,0.001,-0.0012,0.0023,-0.0093,-0.0096,-0.0098,-0.0117,-0.0122,-0.0126,0,0,0,0,0,0.0214,0.018,0.0183,0.0175,0.0129,0.0094,0.0088,0.0082,0.0095,0.0078,0.0065,0.0069,-0.0004,0.0014,0.0005,-0.0019,-0.0092,-0.0095,-0.0098,-0.0115,-0.0121,-0.0126,0,0,0,0,0,0,0.0199,0.0176,0.018,0.0137,0.0118,0.0095,0.0073,0.0076,0.0051,0.0053,0.0046,0.004,-0.0001,-0.0014,0.0007,-0.0065,-0.0046,-0.0052,-0.0056,-0.0062,-0.0066,-0.0064,0.002,0,0,0,0,0,0.0191,0.0166,0.0147,0.011,0.0101,0.0089,0.0073,0.007,0.0049,0.004,0.0025,0.0003,-0.0025,-0.0044,-0.007,-0.0117,-0.0124,-0.0138,-0.0143,-0.0147,-0.0152,-0.018,-0.0187,-0.0111,-0.011,-0.011,0,0,0.0174,0.0158,0.0142,0.0107,0.0092,0.0064,0.0081,0.0051,0.003,0.0035,-0.0004,-0.0016,-0.0041,-0.0085,-0.0106,-0.0097,-0.0174,-0.0151,-0.0154,-0.0157,-0.0184,-0.0191,-0.0198,-0.0113,-0.0112,-0.0112,0,0,0.0127,0.0114,0.0081,0.0066,0.0043,0.0035,0.0028,0.0005,-0.0003,-0.0042,-0.0039,-0.0064,-0.0112,-0.013,-0.0146,-0.0198,-0.0196,-0.0207,-0.0233,-0.0259,-0.0265,-0.0271,-0.0292,-0.0299,-0.0211,-0.0211,-0.0211,0,0.0107,0.0067,0.0064,0.0033,0.0017,0.0023,-0.0011,-0.0026,-0.0057,-0.0069,-0.0058,-0.0118,-0.0134,-0.0184,-0.0197,-0.0208,-0.0219,-0.0205,-0.0264,-0.0269,-0.0274,-0.0295,-0.0302,-0.0213,-0.0212,-0.0212,-0.0212,0,0.0043,0.0015,-0.0009,-0.0038,-0.0057,-0.0089,-0.0097,-0.0116,-0.0116,-0.0125,-0.0166,-0.0185,-0.0216,-0.0227,-0.0228,-0.0277,-0.0271,-0.0262,-0.0244,-0.0283,-0.0302,-0.031,-0.0215,-0.0214,-0.0214,-0.0213,0,0,-0.0017,-0.0046,-0.0055,-0.0069,-0.0093,-0.0116,-0.0148,-0.0177,-0.0194,-0.0215,-0.0243,-0.0283,-0.0275,-0.0292,-0.0295,-0.0318,-0.0361,-0.0306,-0.0307,-0.0318,-0.0418,-0.0427,-0.0436,-0.0358,-0.0359,-0.036,-0.0417,0,-0.0068,-0.0124,-0.0127,-0.0178,-0.0205,-0.0199,-0.0227,-0.0246,-0.0255,-0.028,-0.0291,-0.032,-0.0305,-0.0316,-0.0338,-0.0351,-0.0382,-0.0346,-0.0387,-0.0388,-0.0384,-0.0445,-0.0455,-0.0507,-0.0424,-0.0425,-0.0426,0,-0.0136,-0.0158,-0.0212,-0.0233,-0.0244,-0.0269,-0.0297,-0.032,-0.0341,-0.0346,-0.0365,-0.0365,-0.0399,-0.0377,-0.0426,-0.0402,-0.0418,-0.0427,-0.0429,-0.0435,-0.0412,-0.0456,-0.0524,-0.0533,-0.0437,-0.0437,-0.0436,0,-0.0177,-0.022,-0.0259,-0.027,-0.0295,-0.0313,-0.0324,-0.0344,-0.0362,-0.0385,-0.0397,-0.0425,-0.0441,-0.0463,-0.047,-0.0453,-0.0519,-0.0497,-0.0526,-0.0526,-0.0543,-0.0542,-0.0617,-0.0548,-0.0548,-0.0548,-0.0548,0,-0.0236,-0.027,-0.0278,-0.0302,-0.0339,-0.0342,-0.038,-0.039,-0.0408,-0.0435,-0.043,-0.0456,-0.0463,-0.049,-0.0495,-0.0536,-0.0542,-0.0549,-0.0551,-0.0551,-0.0551,-0.0564,-0.0562,-0.055,-0.055,-0.0549,-0.0549,0,-0.029,-0.0296,-0.0338,-0.0357,-0.0363,-0.039,-0.0408,-0.0431,-0.0438,-0.0472,-0.0481,-0.0493,-0.0525,-0.0533,-0.0571,-0.0575,-0.0623,-0.062,-0.0616,-0.0617,-0.0646,-0.0644,-0.0735,-0.0748,-0.0668,-0.0668,-0.0669,0,-0.0328,-0.0354,-0.0376,-0.0393,-0.0405,-0.0432,-0.045,-0.0453,-0.0472,-0.0497,-0.0518,-0.0549,-0.0574,-0.0624,-0.0638,-0.0667,-0.0667,-0.0696,-0.0671,-0.0671,-0.067,-0.067,-0.0674,-0.0702,-0.0703,-0.0703,-0.0704,0,-0.0397,-0.0398,-0.0423,-0.0449,-0.047,-0.0491,-0.0511,-0.0525,-0.0531,-0.0553,-0.0584,-0.0603,-0.0641,-0.0673,-0.0702,-0.0715,-0.0712,-0.0711,-0.072,-0.0722,-0.072,-0.0724,-0.0632,-0.071,-0.0709,-0.0709,-0.0708,-0.0708,-0.0446,-0.0469,-0.0488,-0.0516,-0.0531,-0.055,-0.0573,-0.0583,-0.0609,-0.064,-0.064,-0.0675,-0.0696,-0.0734,-0.0749,-0.0777,-0.0768,-0.078,-0.0784,-0.0788,-0.0792,-0.0712,-0.0782,-0.0782,-0.0782,-0.0781,-0.0781,0,-0.0517,-0.0528,-0.0554,-0.0581,-0.0604,-0.0595,-0.0617,-0.0637,-0.0667,-0.0686,-0.071,-0.0747,-0.0777,-0.0792,-0.0822,-0.0842,-0.0841,-0.085,-0.085,-0.0854,-0.0796,-0.0787,-0.085,-0.085,-0.085,-0.085,-0.085,-0.085,-0.0556,-0.0596,-0.0599,-0.0646,-0.0657,-0.0691,-0.0704,-0.0722,-0.0737,-0.0778,-0.0802,-0.0811,-0.0829,-0.086,-0.0888,-0.0892,-0.0904,-0.0915,-0.0918,-0.0865,-0.0858,-0.0851,-0.0843,-0.0917,-0.0917,-0.0974,-0.0974,-0.0975]}]]